User: anonymous   Login
Location: Chevoux
(46.3801°N, 4.9476°E)
Time: 02:09:09
(UTC+00:00)
Language:

Explorer 7 - Orbit

View from above orbital plane
View from above orbital plane
View from above satellite
View from above satellite

Ground track
Ground track

The orbit data is extracted from the following two-line orbital elements,

1 00022U 59009A   21131.16074863  .00000399  00000-0  52654-4 0  9997
2 00022  50.2848   4.0442 0138626  71.0869 290.5048 14.95540081519408
Epoch (UTC): 11 May 2021 03:51:28
Eccentricity: 0.0138626
inclination: 50.2848°
perigee height: 484 km
apogee height: 677 km
right ascension of ascending node: 4.0442°
argument of perigee: 71.0869°
revolutions per day: 14.95540081
mean anomaly at epoch: 290.5048°
orbit number at epoch: 51940

The dashed part of the orbit path shows where the satellite is in the earth's shadow,  

DLR